Satellite-Ground Cal/Val Site Overpasses Predictions

Prediction of Satellite NPP Overpassing Cal/Val Site: Antarctic Dome C

Ground Cal/Val Site Location: Latitude: -75.10, Longitude: 123.35; Satellite-Ground Site NADIR distance within 100 km.

Table of predicted overpasses for the next 14.0 days since TLE Epoch: 8/28/2015
Interval Starting Time Ending Time Minimum Distance Time Minimum Distance (km)
1 08/30/2015 15:11:11 08/30/2015 15:11:21 08/30/2015 15:11:16 92.80
2 08/31/2015 14:52:10 08/31/2015 14:52:39 08/31/2015 14:52:24 18.53
3 09/02/2015 07:34:57 09/02/2015 07:35:26 09/02/2015 07:35:12 2.88
4 09/05/2015 14:58:21 09/05/2015 14:58:50 09/05/2015 14:58:35 17.93
5 09/06/2015 14:39:38 09/06/2015 14:39:51 09/06/2015 14:39:45 89.25
6 09/07/2015 07:41:09 09/07/2015 07:41:36 09/07/2015 07:41:23 38.25
7 09/08/2015 07:22:22 09/08/2015 07:22:42 09/08/2015 07:22:32 71.90


NCC Satellite Cal/Val Overpasses Prediction Service
